Regional Weather Roundup
Issued by NWS

Home | Current Version | Previous Version | Graphics & Text | Print | Product List | Glossary On
Versions: 1 2 3 4 5 6 7 8 9 10 11 12 13 14 15 16 17 18 19 20 21 22 23 24 25 26 27 28 29 30 31 32 33 34 35 36 37 38 39 40 41 42 43 44 45 46 47 48 49 50
000
ASUS45 KBOU 301007
RWRCO

WEATHER ROUNDUP FOR COLORADO
NATIONAL WEATHER SERVICE DENVER/BOULDER CO
400 AM MDT WED JUL 30 2014

NOTE: "FAIR" INDICATES FEW OR NO CLOUDS BELOW 12000 FEET WITH NO
SIGNIFICANT WEATHER AND/OR OBSTRUCTIONS TO VISIBILITY.

COZ001>005-013-030-031-301100-
...NORTHWEST COLORADO...

CITY           SKY/WX    TMP DP  RH WIND       PRES   REMARKS
CRAIG          CLOUDY    56  32  40 SW5       30.28R
HAYDEN         CLOUDY    57  54  88 CALM      30.29R
MEEKER         MOCLDY    53  52  96 CALM      30.29S
MOUNT WERNER   NOT AVBL
STEAMBOAT SPGS CLOUDY    55  54  98 E5        30.30F
WALDEN         CLOUDY    52  50  93 CALM      30.36S
$$

COZ006>008-011-301100-
...WEST CENTRAL VALLEYS...

CITY           SKY/WX    TMP DP  RH WIND       PRES   REMARKS
GRAND JUNCTION PTCLDY    59  58  96 CALM      30.19S
MONTROSE       PTCLDY    58  55  90 SE3       30.26S
EAGLE          CLOUDY    57  55  94 E5        30.31S
RIFLE          MOCLDY    59  57  93 CALM      30.25R
DELTA          PTCLDY    62  58  86 CALM      30.23S
NUCLA          MOCLDY    59  57  94 CALM      30.29R
$$

COZ017>023-064>068-301100-
...SOUTHWEST COLORADO...

CITY           SKY/WX    TMP DP  RH WIND       PRES   REMARKS
DURANGO        CLOUDY    60  54  80 CALM      30.26F
CORTEZ         PTCLDY    59  56  89 NE6       30.23S
PAGOSA SPRINGS CLOUDY    57  52  82 CALM      30.35R
TELLURIDE      CLOUDY    52  48  87 SE5       30.43S
WOLF CREEK PAS NOT AVBL
$$

COZ009-010-012-014-032>034-037-058>063-301100-
...CENTRAL COLORADO...

CITY           SKY/WX    TMP DP  RH WIND       PRES   REMARKS
ASPEN          MOCLDY    52  51  97 CALM      30.35S
BUENA VISTA    CLOUDY    55  52  88 SE3       30.36R
COPPER MTN     CLOUDY    45  41  87 SW3       30.59S
BERTHOUD PASS  DRIZZLE   37  36  93 W3        30.63S
COTTONWOOD PAS CLOUDY    54  43  66 CALM      30.47R
GUNNISON       CLOUDY    52  46  82 N3        30.39S
KREMMLING      CLOUDY    55  52  88 CALM      30.34S
LEADVILLE      MOCLDY    47  43  86 CALM      30.45F
SALIDA         CLOUDY    56  55  94 CALM      30.41S
SUNLIGHT       MOCLDY    46  45  93 CALM      30.54S
WILKERSON PASS CLOUDY    43  41  93 N6        30.57S
$$

COZ069>075-301100-
...SAN LUIS VALLEY/SANGRE DE CRISTO MOUNTAINS...

CITY           SKY/WX    TMP DP  RH WIND       PRES   REMARKS
ALAMOSA        PTCLDY    51  50  96 CALM      30.33S
LA VETA PASS   CLOUDY    46  45  93 SW5       30.48S
SAGUACHE       MOCLDY    54  46  76 NW10      30.36S
$$

COZ035-036-038>040-301100-
...NORTHERN COLORADO FRONT RANGE...

CITY           SKY/WX    TMP DP  RH WIND       PRES   REMARKS
DENVER INTL AP CLOUDY    58  57  97 NE12      30.26S
DMNS CITY PARK   N/A     58  57  97 N6        30.27R
AURORA         RAIN      57  57 100 NE9       30.28R
FRONT RANGE AP CLOUDY    59  59 100 NE8       30.28R
ERIE MUNI ARPT DRIZZLE   59  58  97 N5        30.27R
BOULDER MUN AP   N/A    N/A N/A N/A MISG        N/A
CENTENNIAL     LGT RAIN  57  56  96 N8        30.28R FOG
BROOMFIELD     LGT RAIN  57  57 100 N7        30.29R
FORT COLLINS   CLOUDY    59  57  94 NE6       30.29S
LONGMONT       LGT RAIN  61  59  94 CALM      30.29S
$$

COZ041-046-047-076>085-087-088-301100-
...PIKES PEAK/PALMER DIVIDE AND SOUTHERN FOOTHILLS...

CITY           SKY/WX    TMP DP  RH WIND       PRES   REMARKS
COLO. SPRINGS  MOCLDY    60  57  89 E3        30.28R
A. F. ACADEMY  CLOUDY    57  57 100 N8        30.29S
ELLICOTT       CLOUDY    58  56  93 NE8       30.26R
FALCON         DRIZZLE   56  55  97 N5        30.31S
FORT CARSON    CLOUDY    61  59  94 N3        30.25S
LIMON          CLOUDY    58  57  97 NE9       30.24R
MONUMENT HILL  DRIZZLE   54  52  94 NE6       30.31R
TRINIDAD       CLOUDY    62  57  83 NW12      30.22S
$$

COZ042>045-048>051-090-091-301100-
...NORTHEAST COLORADO...

CITY           SKY/WX    TMP DP  RH WIND       PRES   REMARKS
GREELEY ARPT   CLOUDY    61  55  82 E3        30.27S
AKRON          CLOUDY    60  58  92 E12       30.23S
BURLINGTON     CLOUDY    62  60  93 NE9G21    30.17S
WRAY             N/A    N/A N/A N/A E13       30.19S
STERLING       CLOUDY    64  63  94 NE3       30.22R
HOLYOKE        CLOUDY    63  61  94 E6        30.21S
FORT MORGAN    CLOUDY    61  59  94 NE6       30.24S
$$

COZ086-089-092>099-301100-
...SOUTHEAST COLORADO...

CITY           SKY/WX    TMP DP  RH WIND       PRES   REMARKS
PUEBLO         CLOUDY    64  61  90 NE9       30.19S
LA JUNTA       CLOUDY    63  61  93 N9        30.16R
LAMAR          CLOUDY    63  61  93 NE7       30.09R
SPRINGFIELD      N/A     62  62 100 NW15      30.11R
$$


USA.gov is the U.S. government's official web portal to all federal, state and local government web resources and services.